User: anonymous   Login
Location: Waning Moon II Observatory
(30.3730°N, 89.7620°W)
Time: 15:43:48
(UTC-06:00)
Language:

Meteor 1-21 - Orbit

View from above orbital plane
View from above orbital plane
View from above satellite
View from above satellite

Ground track
Ground track

The orbit data is extracted from the following two-line orbital elements,

1 07714U 75023A   14351.47825486  .00000047  00000-0  20645-4 0  9626
2 07714 081.2103 000.3147 0032576 310.1049 213.3606 14.07854489356760
Epoch (UTC): 17 December 2014 11:28:41
Eccentricity: 0.0032576
inclination: 81.2103°
perigee height: 843 km
apogee height: 890 km
right ascension of ascending node: 0.3147°
argument of perigee: 310.1049°
revolutions per day: 14.07854489
mean anomaly at epoch: 213.3606°
orbit number at epoch: 35676

The dashed part of the orbit path shows where the satellite is in the earth's shadow,  

DLR